Regional Weather Roundup
Issued by NWS Charleston, WV

Home | Current Version | Previous Version | Graphics & Text | Print | Product List | Glossary On
Versions: 1 2 3 4 5 6 7 8 9 10 11 12 13 14 15 16 17 18 19 20 21 22 23 24 25 26 27 28 29 30 31 32 33 34 35 36 37 38 39 40 41 42 43 44 45 46 47 48 49 50
000
ASUS41 KRLX 052010
RWRRLX
West Virginia Regional Weather Roundup
National Weather Service Charleston WV
400 PM EDT TUE MAY 05 2015

Note: "fair" indicates few or no clouds below 12,000 feet with no
significant weather and/or obstructions to visibility.

WVZ003-052100-
Northern Panhandle of West Virginia

CITY           SKY/WX    TMP DP  RH WIND       PRES   REMARKS
WHEELING       MOSUNNY   77  59  53 NW8       30.24F
$$

WVZ009-052100-
Northwest West Virginia

CITY           SKY/WX    TMP DP  RH WIND       PRES   REMARKS
PARKERSBURG    MOSUNNY   81  60  48 NE9       30.25F
$$

WVZ006-052100-
Western West Virginia

CITY           SKY/WX    TMP DP  RH WIND       PRES   REMARKS
HUNTINGTON     PTSUNNY   80  51  36 W9        30.22F
$$

WVZ015-052100-
West Central West Virginia

CITY           SKY/WX    TMP DP  RH WIND       PRES   REMARKS
CHARLESTON     MOSUNNY   85  51  31 W3G16     30.22F
$$

WVZ022-031-052100-
North Central West Virginia

CITY           SKY/WX    TMP DP  RH WIND       PRES   REMARKS
CLARKSBURG     PTSUNNY   79  56  45 N3        30.23F
MORGANTOWN     PTSUNNY   80  56  43 VRB3      30.24F
$$

WVZ025-035-042-045-052100-
Southern West Virginia

CITY           SKY/WX    TMP DP  RH WIND       PRES   REMARKS
BECKLEY        CLOUDY    74  48  39 W3        30.31F
LOGAN            N/A     81  50  34 VRB5      30.23F
BLUEFIELD      CLOUDY    77  46  33 N3        30.32F
LEWISBURG      CLOUDY    77  48  35 CALM      30.29F
$$

WVZ047-052100-
Northern Mountains of West Virginia

CITY           SKY/WX    TMP DP  RH WIND       PRES   REMARKS
ELKINS         PTSUNNY   74  56  53 S10       30.28F
$$

WVZ052-052100-
Eastern Panhandle of West Virginia

CITY           SKY/WX    TMP DP  RH WIND       PRES   REMARKS
MARTINSBURG    PTSUNNY   79  58  48 SE5       30.21F
PETERSBURG     MOSUNNY   78  58  50 E6        30.22F
$$


USA.gov is the U.S. government's official web portal to all federal, state and local government web resources and services.